sat.trackr.live / text

‹ back to catalog

STARLINK-31038

NORAD 58605 · 2023-200S

PAYLOAD ACTIVE UNKNOWN

§ Identity

Operator
Country
US
Launch date
2023-12-19
Launch site
AFETR
Launch vehicle
Mass (kg)
RCS (m²)

Purposes: comms

External: N2YO · Heavens-Above · Gunter

§ Orbital elements

Epoch: 2026-09-19T23:10:01.682400Z

Period
92.92 min
Inclination
42.9949°
Eccentricity
0.0021305
Mean motion
15.49671332 rev/d
Perigee alt
403.2 km
Apogee alt
432.2 km
Semi-major
6,795.8 km
B*
1.9039e-3
RAAN
137.7303°
Arg perigee
229.4736°
Mean anomaly
130.4268°
Rev number
15,348

§ Raw data

STARLINK-310381 58605U 23200S   26262.96529725  .00110309  00000+0  19039-2 0  99912 58605  42.9949 137.7303 0021305 229.4736 130.4268 15.49671332153487

JSON: /api/v1/satellites/58605 · /tle

For live sub-satellite position, see the globe view (requires WebGL).

§ Visibility from observer

Set your observer location to see the next 7 days of passes ≥ 10°. The values pass through the URL so the page stays shareable.

No JS? Fill the form by hand. The geolocation button needs JavaScript.